Location: Cassagne
(43.1218°N, 0.9901°E)
Time: 19:59:09
(UTC+00:00)

USA 116 - Pass Details

Date: 17 February 2020
Orbit: 405 x 834 km, 97.9° (Epoch: 18 November)

Event Time Altitude Azimuth Distance (km) Brightness Sun altitude
Rises 05:41:44 0° 172° (S) 2,455 7.2 -13.4°
Reaches altitude 10° 05:43:50 10° 176° (S) 1,545 6.1 -13.0°
Maximum altitude 05:47:03 62° 258° (WSW) 477 3.1 -12.4°
Drops below altitude 10° 05:50:09 10° 340° (NNW) 1,480 5.7 -11.9°
Sets 05:52:08 0° 344° (NNW) 2,339 6.7 -11.5°
